Time,TemperatureF,DewpointF,PressureIn,WindDirection,WindDirectionDegrees,WindSpeedMPH,WindSpeedGustMPH,Humidity,HourlyPrecipIn,Conditions,Clouds,dailyrainin,SoftwareType,DateUTC
2013-06-08 00:05:00,58.8,47.8,28.94,NE,41,0.0,4.0,67,0.00,,,-99.99,Weather View 32 v60,2013-06-08 05:05:00,
2013-06-08 00:10:00,58.6,47.2,28.94,NE,41,0.0,4.0,66,0.00,,,-99.99,Weather View 32 v60,2013-06-08 05:10:00,
2013-06-08 00:20:00,58.8,47.8,28.94,NE,46,0.0,2.0,67,0.00,,,-99.99,Weather View 32 v60,2013-06-08 05:20:00,
2013-06-08 00:30:00,58.9,47.9,28.94,ENE,66,1.0,3.0,67,0.00,,,-99.99,Weather View 32 v60,2013-06-08 05:30:00,
2013-06-08 00:35:00,59.0,48.4,28.94,East,83,1.0,4.0,68,0.00,,,-99.99,Weather View 32 v60,2013-06-08 05:35:00,
2013-06-08 00:45:00,59.1,48.9,28.94,East,91,3.0,4.0,69,0.00,,,-99.99,Weather View 32 v60,2013-06-08 05:45:00,
2013-06-08 00:50:00,59.1,48.9,28.94,SE,138,2.0,6.0,69,0.00,,,-99.99,Weather View 32 v60,2013-06-08 05:50:00,
2013-06-08 01:00:00,59.2,48.6,28.94,SE,138,2.0,6.0,68,0.00,,,-99.99,Weather View 32 v60,2013-06-08 06:00:00,
2013-06-08 01:10:00,59.3,47.9,28.94,SE,138,3.0,6.0,66,0.00,,,-99.99,Weather View 32 v60,2013-06-08 06:10:00,
2013-06-08 01:20:00,59.3,47.5,28.94,SE,142,3.0,6.0,65,0.00,,,-99.99,Weather View 32 v60,2013-06-08 06:20:00,
2013-06-08 01:29:00,59.2,47.4,28.93,SE,145,3.0,6.0,65,0.00,,,-99.99,Weather View 32 v60,2013-06-08 06:29:00,
2013-06-08 01:35:00,59.1,47.7,28.93,SE,145,2.0,6.0,66,0.00,,,-99.99,Weather View 32 v60,2013-06-08 06:35:00,
2013-06-08 01:45:00,58.9,-29.5,28.93,SE,146,4.0,6.0,2,0.00,,,-99.99,Weather View 32 v60,2013-06-08 06:45:00,
2013-06-08 01:57:00,58.9,-29.5,28.93,SE,146,4.0,6.0,2,0.00,,,-99.99,Weather View 32 v60,2013-06-08 06:57:00,
2013-06-08 02:05:00,58.1,47.6,28.93,SSE,150,1.0,5.0,68,0.00,,,-99.99,Weather View 32 v60,2013-06-08 07:05:00,
2013-06-08 02:10:00,57.9,47.8,28.93,SSE,150,1.0,5.0,69,0.00,,,-99.99,Weather View 32 v60,2013-06-08 07:10:00,
2013-06-08 02:20:00,57.8,-22.8,28.92,SSE,150,2.0,5.0,3,0.00,,,-99.99,Weather View 32 v60,2013-06-08 07:20:00,
2013-06-08 02:30:00,57.6,47.9,28.92,SSE,150,2.0,5.0,70,0.00,,,-99.99,Weather View 32 v60,2013-06-08 07:30:00,
2013-06-08 02:40:00,57.6,47.9,28.92,SSE,150,3.0,6.0,70,0.00,,,-99.99,Weather View 32 v60,2013-06-08 07:40:00,
2013-06-08 02:50:00,57.5,47.8,28.91,SSE,150,2.0,6.0,70,0.00,,,-99.99,Weather View 32 v60,2013-06-08 07:50:00,
2013-06-08 02:58:00,57.3,47.6,28.92,SSE,150,1.0,6.0,70,0.00,,,-99.99,Weather View 32 v60,2013-06-08 07:58:00,
2013-06-08 03:05:00,57.1,47.8,28.92,SSE,150,1.0,6.0,71,0.00,,,-99.99,Weather View 32 v60,2013-06-08 08:05:00,
2013-06-08 03:15:00,57.0,48.0,28.92,SSE,150,1.0,6.0,72,0.00,,,-99.99,Weather View 32 v60,2013-06-08 08:15:00,
2013-06-08 03:25:00,56.9,47.9,28.92,SSE,150,0.0,6.0,72,0.00,,,-99.99,Weather View 32 v60,2013-06-08 08:25:00,
2013-06-08 03:35:00,56.6,47.7,28.92,SSE,150,0.0,6.0,72,0.00,,,-99.99,Weather View 32 v60,2013-06-08 08:35:00,
2013-06-08 03:45:00,56.3,47.7,28.92,SSE,150,2.0,4.0,73,0.00,,,-99.99,Weather View 32 v60,2013-06-08 08:45:00,
2013-06-08 03:55:00,56.2,47.6,28.92,SSE,152,1.0,5.0,73,0.00,,,-99.99,Weather View 32 v60,2013-06-08 08:55:00,
2013-06-08 04:05:00,55.9,47.7,28.92,SSE,152,1.0,5.0,74,0.00,,,-99.99,Weather View 32 v60,2013-06-08 09:05:00,
2013-06-08 04:15:00,55.7,0.0,28.92,SSE,152,0.0,5.0,0,0.00,,,-99.99,Weather View 32 v60,2013-06-08 09:15:00,
2013-06-08 04:25:00,55.6,-31.7,28.92,South,190,3.0,5.0,2,0.00,,,-99.99,Weather View 32 v60,2013-06-08 09:25:00,
2013-06-08 04:30:00,55.6,47.8,28.92,South,190,3.0,5.0,75,0.00,,,-99.99,Weather View 32 v60,2013-06-08 09:30:00,
2013-06-08 04:35:00,55.5,47.7,28.91,South,190,2.0,5.0,75,0.00,,,-99.99,Weather View 32 v60,2013-06-08 09:35:00,
2013-06-08 04:45:00,55.2,47.8,28.92,South,190,0.0,5.0,76,0.00,,,-99.99,Weather View 32 v60,2013-06-08 09:45:00,
2013-06-08 04:55:00,55.0,47.6,28.92,South,190,0.0,5.0,76,0.00,,,-99.99,Weather View 32 v60,2013-06-08 09:55:00,
2013-06-08 04:59:00,54.9,47.8,28.92,South,190,0.0,5.0,77,0.00,,,-99.99,Weather View 32 v60,2013-06-08 09:59:00,
2013-06-08 05:05:00,54.8,47.7,28.92,South,190,0.0,5.0,77,0.00,,,-99.99,Weather View 32 v60,2013-06-08 10:05:00,
2013-06-08 05:15:00,54.5,47.4,28.92,South,190,0.0,5.0,77,0.00,,,-99.99,Weather View 32 v60,2013-06-08 10:15:00,
2013-06-08 05:20:00,54.4,47.3,28.93,South,190,0.0,5.0,77,0.00,,,-99.99,Weather View 32 v60,2013-06-08 10:20:00,
2013-06-08 05:30:00,54.5,47.8,28.92,South,190,0.0,5.0,78,0.00,,,-99.99,Weather View 32 v60,2013-06-08 10:30:00,
2013-06-08 05:40:00,54.4,47.7,28.91,South,190,0.0,3.0,78,0.00,,,-99.99,Weather View 32 v60,2013-06-08 10:40:00,
2013-06-08 05:45:00,54.2,47.5,28.91,South,189,2.0,3.0,78,0.00,,,-99.99,Weather View 32 v60,2013-06-08 10:45:00,
2013-06-08 05:54:00,53.4,47.0,28.91,South,177,1.0,3.0,79,0.00,,,-99.99,Weather View 32 v60,2013-06-08 10:54:00,
2013-06-08 06:00:00,53.2,46.8,28.91,South,177,1.0,3.0,79,0.00,,,-99.99,Weather View 32 v60,2013-06-08 11:00:00,
2013-06-08 06:05:00,53.3,-33.2,28.91,South,177,1.0,3.0,2,0.00,,,-99.99,Weather View 32 v60,2013-06-08 11:05:00,
2013-06-08 06:15:00,53.8,-32.9,28.92,South,175,1.0,4.0,2,0.00,,,-99.99,Weather View 32 v60,2013-06-08 11:15:00,
2013-06-08 06:20:00,54.1,48.1,28.92,SSE,167,0.0,5.0,80,0.00,,,-99.99,Weather View 32 v60,2013-06-08 11:20:00,
2013-06-08 06:30:00,55.0,48.9,28.92,SW,234,1.0,5.0,80,0.00,,,-99.99,Weather View 32 v60,2013-06-08 11:30:00,
2013-06-08 06:40:00,55.7,49.3,28.92,WSW,240,2.0,6.0,79,0.00,,,-99.99,Weather View 32 v60,2013-06-08 11:40:00,
2013-06-08 06:45:00,55.9,49.1,28.92,SSE,159,4.0,6.0,78,0.00,,,-99.99,Weather View 32 v60,2013-06-08 11:45:00,
2013-06-08 06:55:00,56.2,49.1,28.92,SSE,159,2.0,7.0,77,0.00,,,-99.99,Weather View 32 v60,2013-06-08 11:55:00,
2013-06-08 07:00:00,56.3,49.2,28.92,SSE,162,2.0,7.0,77,0.00,,,-99.99,Weather View 32 v60,2013-06-08 12:00:00,
2013-06-08 07:10:00,56.6,49.5,28.91,SSE,165,2.0,7.0,77,0.00,,,-99.99,Weather View 32 v60,2013-06-08 12:10:00,
2013-06-08 07:20:00,57.3,49.8,28.91,South,174,2.0,7.0,76,0.00,,,-99.99,Weather View 32 v60,2013-06-08 12:20:00,
2013-06-08 07:30:00,58.2,50.3,28.91,SSE,160,4.0,7.0,75,0.00,,,-99.99,Weather View 32 v60,2013-06-08 12:30:00,
2013-06-08 07:35:00,58.7,50.4,28.92,WSW,258,2.0,7.0,74,0.00,,,-99.99,Weather View 32 v60,2013-06-08 12:35:00,
2013-06-08 07:45:00,59.7,-41.3,28.92,West,263,1.0,7.0,1,0.00,,,-99.99,Weather View 32 v60,2013-06-08 12:45:00,
2013-06-08 07:55:00,60.1,51.0,28.92,West,267,4.0,7.0,72,0.00,,,-99.99,Weather View 32 v60,2013-06-08 12:55:00,
2013-06-08 08:00:00,60.5,51.0,28.92,West,260,3.0,7.0,71,0.00,,,-99.99,Weather View 32 v60,2013-06-08 13:00:00,
2013-06-08 08:05:00,61.0,-3.7,28.92,WNW,282,3.0,9.0,7,0.00,,,-99.99,Weather View 32 v60,2013-06-08 13:05:00,
2013-06-08 08:15:00,61.8,51.5,28.92,South,175,4.0,12.0,69,0.00,,,-99.99,Weather View 32 v60,2013-06-08 13:15:00,
2013-06-08 08:20:00,61.7,51.8,28.92,SSW,203,6.0,12.0,70,0.00,,,-99.99,Weather View 32 v60,2013-06-08 13:20:00,
2013-06-08 08:30:00,62.0,52.1,28.92,South,188,8.0,12.0,70,0.00,,,-99.99,Weather View 32 v60,2013-06-08 13:30:00,
2013-06-08 08:40:00,62.4,52.1,28.93,SSW,212,7.0,12.0,69,0.00,,,-99.99,Weather View 32 v60,2013-06-08 13:40:00,
2013-06-08 08:45:00,62.8,52.5,28.92,SSW,201,8.0,12.0,69,0.00,,,-99.99,Weather View 32 v60,2013-06-08 13:45:00,
2013-06-08 08:55:00,63.1,52.3,28.92,South,181,7.0,12.0,68,0.00,,,-99.99,Weather View 32 v60,2013-06-08 13:55:00,
2013-06-08 09:01:00,63.1,52.3,28.93,SSW,202,6.0,13.0,68,0.00,,,-99.99,Weather View 32 v60,2013-06-08 14:01:00,
2013-06-08 09:10:00,63.9,52.7,28.93,SSW,204,9.0,13.0,67,0.00,,,-99.99,Weather View 32 v60,2013-06-08 14:10:00,
2013-06-08 09:15:00,64.2,53.0,28.93,SW,220,6.0,14.0,67,0.00,,,-99.99,Weather View 32 v60,2013-06-08 14:15:00,
2013-06-08 09:25:00,65.1,-7.6,28.93,SW,218,10.0,14.0,5,0.00,,,-99.99,Weather View 32 v60,2013-06-08 14:25:00,
2013-06-08 09:30:00,65.6,53.1,28.93,SW,222,9.0,14.0,64,0.00,,,-99.99,Weather View 32 v60,2013-06-08 14:30:00,
2013-06-08 09:40:00,66.0,-7.0,28.93,SSW,213,9.0,14.0,5,0.00,,,-99.99,Weather View 32 v60,2013-06-08 14:40:00,
2013-06-08 09:49:00,66.9,53.0,28.93,SSW,203,8.0,14.0,61,0.00,,,-99.99,Weather View 32 v60,2013-06-08 14:49:00,
2013-06-08 09:55:00,67.5,53.5,28.93,South,187,2.0,14.0,61,0.00,,,-99.99,Weather View 32 v60,2013-06-08 14:55:00,
2013-06-08 10:01:00,68.2,53.3,28.93,SSW,200,6.0,14.0,59,0.00,,,-99.99,Weather View 32 v60,2013-06-08 15:01:00,
2013-06-08 10:10:00,68.4,52.5,28.93,SW,225,4.0,14.0,57,0.00,,,-99.99,Weather View 32 v60,2013-06-08 15:10:00,
2013-06-08 10:15:00,68.7,53.3,28.92,South,187,5.0,14.0,58,0.00,,,-99.99,Weather View 32 v60,2013-06-08 15:15:00,
2013-06-08 10:25:00,69.4,53.5,28.92,South,175,6.0,14.0,57,0.00,,,-99.99,Weather View 32 v60,2013-06-08 15:25:00,
2013-06-08 10:35:00,69.4,53.0,28.92,SSE,150,6.0,14.0,56,0.00,,,-99.99,Weather View 32 v60,2013-06-08 15:35:00,
2013-06-08 10:40:00,69.7,52.8,28.91,South,186,7.0,14.0,55,0.00,,,-99.99,Weather View 32 v60,2013-06-08 15:40:00,
2013-06-08 10:50:00,69.5,52.6,28.91,SSW,196,2.0,12.0,55,0.00,,,-99.99,Weather View 32 v60,2013-06-08 15:50:00,
2013-06-08 11:00:00,69.7,52.3,28.91,SSW,202,8.0,12.0,54,0.00,,,-99.99,Weather View 32 v60,2013-06-08 16:00:00,
2013-06-08 11:05:00,69.6,52.7,28.91,South,171,5.0,12.0,55,0.00,,,-99.99,Weather View 32 v60,2013-06-08 16:05:00,
2013-06-08 11:10:00,69.8,52.9,28.91,SSE,150,7.0,13.0,55,0.00,,,-99.99,Weather View 32 v60,2013-06-08 16:10:00,
2013-06-08 11:20:00,70.2,52.7,28.91,South,189,2.0,13.0,54,0.00,,,-99.99,Weather View 32 v60,2013-06-08 16:20:00,
2013-06-08 11:25:00,70.0,53.0,28.91,SSE,162,4.0,13.0,55,0.00,,,-99.99,Weather View 32 v60,2013-06-08 16:25:00,
2013-06-08 11:35:00,70.4,52.9,28.90,South,184,6.0,13.0,54,0.00,,,-99.99,Weather View 32 v60,2013-06-08 16:35:00,
2013-06-08 11:44:00,70.8,53.3,28.90,South,174,2.0,13.0,54,0.00,,,-99.99,Weather View 32 v60,2013-06-08 16:44:00,
2013-06-08 11:50:00,71.2,53.7,28.90,SSE,151,2.0,13.0,54,0.00,,,-99.99,Weather View 32 v60,2013-06-08 16:50:00,
2013-06-08 12:00:00,72.0,53.9,28.90,SSE,161,5.0,13.0,53,0.00,,,-99.99,Weather View 32 v60,2013-06-08 17:00:00,
2013-06-08 12:05:00,72.0,53.4,28.90,SSE,151,7.0,13.0,52,0.00,,,-99.99,Weather View 32 v60,2013-06-08 17:05:00,
2013-06-08 12:15:00,71.7,53.1,28.90,SW,220,6.0,13.0,52,0.00,,,-99.99,Weather View 32 v60,2013-06-08 17:15:00,
2013-06-08 12:20:00,71.6,53.5,28.90,SSE,147,5.0,13.0,53,0.00,,,-99.99,Weather View 32 v60,2013-06-08 17:20:00,
2013-06-08 12:30:00,72.1,54.0,28.90,SE,142,5.0,13.0,53,0.00,,,-99.99,Weather View 32 v60,2013-06-08 17:30:00,
2013-06-08 12:40:00,72.6,53.9,28.89,SSE,150,2.0,13.0,52,0.00,,,-99.99,Weather View 32 v60,2013-06-08 17:40:00,
2013-06-08 12:45:00,73.4,54.1,28.89,South,174,9.0,13.0,51,0.00,,,-99.99,Weather View 32 v60,2013-06-08 17:45:00,
2013-06-08 12:55:00,73.8,53.9,28.89,South,184,7.0,13.0,50,0.00,,,-99.99,Weather View 32 v60,2013-06-08 17:55:00,
2013-06-08 13:00:00,73.9,54.0,28.89,SSE,166,1.0,13.0,50,0.00,,,-99.99,Weather View 32 v60,2013-06-08 18:00:00,
2013-06-08 13:10:00,74.9,53.8,28.89,SSE,158,6.0,13.0,48,0.00,,,-99.99,Weather View 32 v60,2013-06-08 18:10:00,
2013-06-08 13:15:00,74.6,53.0,28.89,South,175,6.0,14.0,47,0.00,,,-99.99,Weather View 32 v60,2013-06-08 18:15:00,
2013-06-08 13:25:00,73.8,52.2,28.89,South,191,10.0,14.0,47,0.00,,,-99.99,Weather View 32 v60,2013-06-08 18:25:00,
2013-06-08 13:35:00,73.3,52.4,28.89,SSW,201,6.0,14.0,48,0.00,,,-99.99,Weather View 32 v60,2013-06-08 18:35:00,
2013-06-08 13:40:00,73.0,52.1,28.89,SW,222,5.0,14.0,48,0.00,,,-99.99,Weather View 32 v60,2013-06-08 18:40:00,
2013-06-08 13:50:00,72.9,53.7,28.89,South,176,3.0,14.0,51,0.00,,,-99.99,Weather View 32 v60,2013-06-08 18:50:00,
2013-06-08 13:55:00,73.1,53.3,28.88,South,170,7.0,14.0,50,0.00,,,-99.99,Weather View 32 v60,2013-06-08 18:55:00,
2013-06-08 14:04:00,72.7,53.5,28.88,SSE,154,3.0,14.0,51,0.00,,,-99.99,Weather View 32 v60,2013-06-08 19:04:00,
2013-06-08 14:10:00,72.5,53.3,28.88,SSE,160,3.0,14.0,51,0.00,,,-99.99,Weather View 32 v60,2013-06-08 19:10:00,
2013-06-08 14:15:00,72.4,53.7,28.88,SW,215,2.0,14.0,52,0.00,,,-99.99,Weather View 32 v60,2013-06-08 19:15:00,
2013-06-08 14:25:00,72.0,52.8,28.87,South,174,1.0,14.0,51,0.00,,,-99.99,Weather View 32 v60,2013-06-08 19:25:00,
2013-06-08 14:30:00,72.0,52.8,28.87,SSE,167,4.0,14.0,51,0.00,,,-99.99,Weather View 32 v60,2013-06-08 19:30:00,
2013-06-08 14:40:00,71.8,53.2,28.87,SSE,167,2.0,10.0,52,0.00,,,-99.99,Weather View 32 v60,2013-06-08 19:40:00,
2013-06-08 14:45:00,71.8,53.2,28.87,SE,139,3.0,10.0,52,0.00,,,-99.99,Weather View 32 v60,2013-06-08 19:45:00,
2013-06-08 14:55:00,72.0,52.8,28.87,SSE,155,3.0,10.0,51,0.00,,,-99.99,Weather View 32 v60,2013-06-08 19:55:00,
2013-06-08 15:04:00,72.2,53.0,28.88,SSE,160,2.0,10.0,51,0.00,,,-99.99,Weather View 32 v60,2013-06-08 20:04:00,
2013-06-08 15:10:00,72.6,53.4,28.87,SE,141,1.0,10.0,51,0.00,,,-99.99,Weather View 32 v60,2013-06-08 20:10:00,
2013-06-08 15:15:00,72.5,53.3,28.87,SSE,157,9.0,11.0,51,0.00,,,-99.99,Weather View 32 v60,2013-06-08 20:15:00,
2013-06-08 15:20:00,72.5,52.7,28.87,ESE,122,4.0,11.0,50,0.00,,,-99.99,Weather View 32 v60,2013-06-08 20:20:00,
2013-06-08 15:30:00,72.4,53.2,28.86,SSE,155,4.0,12.0,51,0.00,,,-99.99,Weather View 32 v60,2013-06-08 20:30:00,
2013-06-08 15:40:00,71.6,53.5,28.87,SSE,154,1.0,12.0,53,0.00,,,-99.99,Weather View 32 v60,2013-06-08 20:40:00,
2013-06-08 15:45:00,71.2,54.2,28.87,SSE,148,7.0,12.0,55,0.00,,,-99.99,Weather View 32 v60,2013-06-08 20:45:00,
2013-06-08 15:55:00,70.2,54.7,28.89,SSW,207,5.0,12.0,58,0.00,,,-99.99,Weather View 32 v60,2013-06-08 20:55:00,
2013-06-08 16:00:00,69.6,55.1,28.89,South,190,3.0,12.0,60,0.01,,,-99.99,Weather View 32 v60,2013-06-08 21:00:00,
2013-06-08 16:05:00,68.9,55.7,28.89,South,189,0.0,12.0,63,0.01,,,-99.99,Weather View 32 v60,2013-06-08 21:05:00,
2013-06-08 16:15:00,67.6,56.2,28.86,ESE,122,4.0,12.0,67,0.02,,,-99.99,Weather View 32 v60,2013-06-08 21:15:00,
2013-06-08 16:25:00,66.4,56.7,28.88,SE,133,1.0,11.0,71,0.03,,,-99.99,Weather View 32 v60,2013-06-08 21:25:00,
2013-06-08 16:30:00,66.1,56.8,28.88,SE,133,0.0,11.0,72,0.03,,,-99.99,Weather View 32 v60,2013-06-08 21:30:00,
2013-06-08 16:40:00,65.7,57.2,28.89,SE,133,0.0,10.0,74,0.04,,,-99.99,Weather View 32 v60,2013-06-08 21:40:00,
2013-06-08 16:45:00,65.6,57.4,28.89,SE,133,2.0,10.0,75,0.05,,,-99.99,Weather View 32 v60,2013-06-08 21:45:00,
2013-06-08 16:55:00,64.7,57.3,28.85,ESE,104,2.0,9.0,77,0.09,,,-99.99,Weather View 32 v60,2013-06-08 21:55:00,
2013-06-08 17:05:00,64.1,57.1,28.85,East,99,5.0,9.0,78,0.09,,,-99.99,Weather View 32 v60,2013-06-08 22:05:00,
2013-06-08 17:15:00,63.9,57.2,28.84,ESE,102,4.0,10.0,79,0.08,,,-99.99,Weather View 32 v60,2013-06-08 22:15:00,
2013-06-08 17:20:00,64.0,57.3,28.85,ESE,105,1.0,10.0,79,0.08,,,-99.99,Weather View 32 v60,2013-06-08 22:20:00,
2013-06-08 17:30:00,64.1,57.4,28.87,ESE,107,4.0,10.0,79,0.08,,,-99.99,Weather View 32 v60,2013-06-08 22:30:00,
2013-06-08 17:40:00,64.0,57.3,28.86,ESE,105,3.0,10.0,79,0.08,,,-99.99,Weather View 32 v60,2013-06-08 22:40:00,
2013-06-08 17:50:00,63.9,57.6,28.86,East,93,6.0,10.0,80,0.05,,,-99.99,Weather View 32 v60,2013-06-08 22:50:00,
2013-06-08 18:00:00,64.0,57.7,28.85,ESE,103,8.0,10.0,80,0.02,,,-99.99,Weather View 32 v60,2013-06-08 23:00:00,
2013-06-08 18:05:00,63.9,57.6,28.84,ENE,70,8.0,10.0,80,0.02,,,-99.99,Weather View 32 v60,2013-06-08 23:05:00,
2013-06-08 18:15:00,64.1,57.8,28.84,ESE,102,6.0,13.0,80,0.02,,,-99.99,Weather View 32 v60,2013-06-08 23:15:00,
2013-06-08 18:25:00,64.1,57.4,28.83,East,99,7.0,13.0,79,0.02,,,-99.99,Weather View 32 v60,2013-06-08 23:25:00,
2013-06-08 18:30:00,64.1,57.4,28.83,ESE,113,7.0,17.0,79,0.01,,,-99.99,Weather View 32 v60,2013-06-08 23:30:00,
2013-06-08 18:40:00,64.2,57.2,28.82,ESE,123,5.0,17.0,78,0.00,,,-99.99,Weather View 32 v60,2013-06-08 23:40:00,
2013-06-08 18:50:00,64.5,57.1,28.82,East,95,6.0,17.0,77,0.00,,,-99.99,Weather View 32 v60,2013-06-08 23:50:00,
2013-06-08 18:55:00,64.7,57.3,28.82,ESE,118,6.0,17.0,77,0.00,,,-99.99,Weather View 32 v60,2013-06-08 23:55:00,
2013-06-08 19:05:00,65.0,56.9,28.82,East,96,4.0,17.0,75,0.00,,,-99.99,Weather View 32 v60,2013-06-09 00:05:00,
2013-06-08 19:15:00,65.0,56.9,28.83,SE,137,3.0,17.0,75,0.00,,,-99.99,Weather View 32 v60,2013-06-09 00:15:00,
2013-06-08 19:20:00,65.0,56.9,28.83,ESE,105,5.0,17.0,75,0.00,,,-99.99,Weather View 32 v60,2013-06-09 00:20:00,
2013-06-08 19:30:00,65.1,57.0,28.82,ESE,107,6.0,15.0,75,0.00,,,-99.99,Weather View 32 v60,2013-06-09 00:30:00,
2013-06-08 19:40:00,65.1,56.6,28.82,ESE,111,7.0,15.0,74,0.00,,,-99.99,Weather View 32 v60,2013-06-09 00:40:00,
2013-06-08 19:45:00,65.1,57.0,28.82,ESE,111,10.0,15.0,75,0.00,,,-99.99,Weather View 32 v60,2013-06-09 00:45:00,
2013-06-08 19:55:00,65.0,56.9,28.81,ESE,114,8.0,15.0,75,0.00,,,-99.99,Weather View 32 v60,2013-06-09 00:55:00,
2013-06-08 20:00:00,64.9,-7.8,28.81,SE,124,7.0,15.0,5,0.00,,,-99.99,Weather View 32 v60,2013-06-09 01:00:00,
2013-06-08 20:07:00,65.0,56.5,28.81,ESE,121,2.0,14.0,74,0.00,,,-99.99,Weather View 32 v60,2013-06-09 01:07:00,
2013-06-08 20:15:00,65.0,56.5,28.80,ESE,119,11.0,16.0,74,0.00,,,-99.99,Weather View 32 v60,2013-06-09 01:15:00,
2013-06-08 20:20:00,65.2,56.3,28.80,SE,125,11.0,16.0,73,0.00,,,-99.99,Weather View 32 v60,2013-06-09 01:20:00,
2013-06-08 20:30:00,65.3,56.4,28.80,ESE,105,8.0,16.0,73,0.00,,,-99.99,Weather View 32 v60,2013-06-09 01:30:00,
2013-06-08 20:40:00,65.5,56.2,28.80,ESE,111,12.0,16.0,72,0.00,,,-99.99,Weather View 32 v60,2013-06-09 01:40:00,
2013-06-08 20:50:00,65.7,56.0,28.79,ESE,106,5.0,16.0,71,0.00,,,-99.99,Weather View 32 v60,2013-06-09 01:50:00,
2013-06-08 20:55:00,65.8,55.7,28.79,ESE,120,8.0,16.0,70,0.00,,,-99.99,Weather View 32 v60,2013-06-09 01:55:00,
2013-06-08 21:05:00,65.9,55.8,28.79,ESE,123,10.0,16.0,70,0.00,,,-99.99,Weather View 32 v60,2013-06-09 02:05:00,
2013-06-08 21:15:00,66.3,55.8,28.79,ESE,104,3.0,16.0,69,0.00,,,-99.99,Weather View 32 v60,2013-06-09 02:15:00,
2013-06-08 21:25:00,66.5,55.6,28.79,ESE,119,7.0,16.0,68,0.00,,,-99.99,Weather View 32 v60,2013-06-09 02:25:00,
2013-06-08 21:30:00,66.5,55.6,28.79,SE,128,8.0,16.0,68,0.00,,,-99.99,Weather View 32 v60,2013-06-09 02:30:00,
2013-06-08 21:40:00,66.4,55.5,28.79,SE,125,9.0,15.0,68,0.00,,,-99.99,Weather View 32 v60,2013-06-09 02:40:00,
2013-06-08 21:45:00,66.3,55.8,28.79,ESE,115,6.0,18.0,69,0.01,,,-99.99,Weather View 32 v60,2013-06-09 02:45:00,
2013-06-08 21:55:00,65.9,55.8,28.79,SE,134,6.0,18.0,70,0.01,,,-99.99,Weather View 32 v60,2013-06-09 02:55:00,
2013-06-08 22:05:00,65.7,56.0,28.78,ESE,103,5.0,18.0,71,0.01,,,-99.99,Weather View 32 v60,2013-06-09 03:05:00,
2013-06-08 22:10:00,65.6,55.9,28.79,ESE,106,7.0,18.0,71,0.01,,,-99.99,Weather View 32 v60,2013-06-09 03:10:00,
2013-06-08 22:15:00,65.7,56.0,28.79,SE,136,8.0,18.0,71,0.01,,,-99.99,Weather View 32 v60,2013-06-09 03:15:00,
2013-06-08 22:20:00,65.6,55.9,28.79,SE,146,7.0,18.0,71,0.02,,,-99.99,Weather View 32 v60,2013-06-09 03:20:00,
2013-06-08 22:30:00,65.8,55.7,28.79,SE,135,9.0,18.0,70,0.02,,,-99.99,Weather View 32 v60,2013-06-09 03:30:00,
2013-06-08 22:40:00,66.0,55.9,28.79,SE,139,4.0,18.0,70,0.02,,,-99.99,Weather View 32 v60,2013-06-09 03:40:00,
2013-06-08 22:45:00,66.0,55.5,28.79,South,172,6.0,17.0,69,0.01,,,-99.99,Weather View 32 v60,2013-06-09 03:45:00,
2013-06-08 22:55:00,66.0,55.5,28.79,SE,129,11.0,17.0,69,0.01,,,-99.99,Weather View 32 v60,2013-06-09 03:55:00,
2013-06-08 23:05:00,66.0,55.5,28.78,SE,125,7.0,17.0,69,0.01,,,-99.99,Weather View 32 v60,2013-06-09 04:05:00,
2013-06-08 23:09:00,66.0,55.5,28.78,SE,125,7.0,17.0,69,0.01,,,-99.99,Weather View 32 v60,2013-06-09 04:09:00,
2013-06-08 23:10:00,66.1,55.6,28.78,South,178,2.0,17.0,69,0.01,,,-99.99,Weather View 32 v60,2013-06-09 04:10:00,
2013-06-08 23:15:00,66.2,55.3,28.79,SSE,162,7.0,17.0,68,0.01,,,-99.99,Weather View 32 v60,2013-06-09 04:15:00,
2013-06-08 23:20:00,66.3,55.4,28.79,South,180,6.0,17.0,68,0.00,,,-99.99,Weather View 32 v60,2013-06-09 04:20:00,
2013-06-08 23:25:00,66.5,55.6,28.80,SSE,163,6.0,17.0,68,0.00,,,-99.99,Weather View 32 v60,2013-06-09 04:25:00,
2013-06-08 23:35:00,66.2,55.7,28.79,South,179,6.0,17.0,69,0.01,,,-99.99,Weather View 32 v60,2013-06-09 04:35:00,
2013-06-08 23:40:00,65.7,55.6,28.80,SSW,212,4.0,16.0,70,0.02,,,-99.99,Weather View 32 v60,2013-06-09 04:40:00,
2013-06-08 23:50:00,64.5,55.6,28.80,South,180,5.0,13.0,73,0.03,,,-99.99,Weather View 32 v60,2013-06-09 04:50:00,
2013-06-08 23:55:00,64.0,55.9,28.80,SSW,200,9.0,17.0,75,0.04,,,-99.99,Weather View 32 v60,2013-06-09 04:55:00,